Eagle River, WI

7:47 AM CST on February 26, 2017 (GMT -0600)
Eagle River Union

Weather History for KEGV - October, 2012

Change the Weather History Date:

Sunday, October 7, 2012

  Actual Average Record
Temperature  
Mean Temperature 34 °F -  
Max Temperature 46 °F 54 °F 82 °F (2007)
Min Temperature 23 °F 38 °F 23 °F (2001)
Degree Days  
Heating Degree Days 30    
Moisture  
Dew Point 21 °F    
Average Humidity 60    
Maximum Humidity 100    
Minimum Humidity 27    
Precipitation  
Precipitation 0.00 in - - ()
Sea Level Pressure  
Sea Level Pressure 30.03 in    
Wind  
Wind Speed 6 mph (WSW)    
Max Wind Speed 18 mph    
Max Gust Speed 25 mph    
Visibility 10 miles    
Events      
Averages and records for this station are not official NWS values.
T = Trace of Precipitation, MM = Missing Value Source: NWS Daily Summary

Daily Weather History Graph

Daily Weather History Graph

Search for Another Location

Airport or City:

Trip Planner

Search our weather history database for the weather conditions in past years. The results will help you decide how hot, cold, wet, or windy it might be!

Date:

Astronomy

Oct. 07, 2012 Rise Set
Actual Time 7:03 AM CDT 6:24 PM CDT
Civil Twilight 6:34 AM CDT 6:54 PM CDT
Nautical Twilight 5:59 AM CDT 7:29 PM CDT
Astronomical Twilight 5:24 AM CDT 8:03 PM CDT
Moon 11:23 PM CDT (10/7) 1:54 PM CDT (10/7)
Length of Visible Light 12h 20m
Length of Day
11h 20m
Waning Gibbous, 56% of the Moon is Illuminated
Oct 7
Waning Gibbous
Oct 8
Last Quarter
Oct 15
New
Oct 21
First Quarter
Oct 29
Full

Hourly Weather History & Observations

Time (CDT) Temp. Windchill Dew Point Humidity Pressure Visibility Wind Dir Wind Speed Gust Speed Precip Events Conditions
12:15 AM 32.0 °F 28.7 °F 28.4 °F 87% 30.12 in 10.0 mi West 3.5 mph - N/A   Overcast
12:35 AM 32.0 °F 28.7 °F 26.6 °F 80% 30.12 in 10.0 mi West 3.5 mph - N/A   Overcast
12:55 AM 32.0 °F 28.7 °F 26.6 °F 80% 30.12 in 10.0 mi WSW 3.5 mph - N/A   Overcast
1:15 AM 32.0 °F 27.5 °F 26.6 °F 80% 30.12 in 10.0 mi West 4.6 mph - N/A   Overcast
1:35 AM 33.8 °F 28.6 °F 26.6 °F 75% 30.12 in 10.0 mi West 5.8 mph - N/A   Overcast
1:55 AM 32.0 °F 27.5 °F 26.6 °F 80% 30.11 in 10.0 mi WSW 4.6 mph - N/A   Overcast
2:15 AM 32.0 °F 28.7 °F 26.6 °F 80% 30.11 in 10.0 mi WSW 3.5 mph - N/A   Overcast
2:35 AM 32.0 °F 27.5 °F 26.6 °F 80% 30.10 in 10.0 mi WSW 4.6 mph - N/A   Overcast
2:55 AM 32.0 °F 26.4 °F 26.6 °F 80% 30.10 in 10.0 mi WSW 5.8 mph - N/A   Overcast
3:15 AM 32.0 °F - 26.6 °F 80% 30.10 in 10.0 mi Calm Calm - N/A   Overcast
3:35 AM 32.0 °F - 26.6 °F 80% 30.09 in 10.0 mi Calm Calm - N/A   Overcast
3:55 AM 30.2 °F 26.7 °F 24.8 °F 80% 30.09 in 10.0 mi West 3.5 mph - N/A   Overcast
4:15 AM 28.4 °F 23.3 °F 23.0 °F 80% 30.09 in 10.0 mi West 4.6 mph - N/A   Scattered Clouds
4:35 AM 28.4 °F 23.3 °F 23.0 °F 80% 30.09 in 10.0 mi West 4.6 mph - N/A   Clear
4:55 AM 28.4 °F 24.6 °F 23.0 °F 80% 30.09 in 10.0 mi West 3.5 mph - N/A   Clear
5:15 AM 28.4 °F 23.3 °F 23.0 °F 80% 30.09 in 10.0 mi West 4.6 mph - N/A   Clear
5:35 AM 26.6 °F 22.6 °F 26.6 °F 100% 30.08 in 10.0 mi WSW 3.5 mph - N/A   Clear
5:55 AM 26.6 °F - 26.6 °F 100% 30.08 in 10.0 mi Calm Calm - N/A   Clear
6:15 AM 26.6 °F - 24.8 °F 93% 30.09 in 10.0 mi Calm Calm - N/A   Clear
6:35 AM 24.8 °F - 24.8 °F 100% 30.09 in 10.0 mi Calm Calm - N/A   Clear
6:55 AM 23.0 °F - 23.0 °F 100% 30.08 in 10.0 mi Calm Calm - N/A   Clear
7:15 AM 23.0 °F - 23.0 °F 100% 30.08 in 10.0 mi Calm Calm - N/A   Clear
7:35 AM 24.8 °F - 24.8 °F 100% 30.08 in 10.0 mi Calm Calm - N/A   Clear
7:55 AM 26.6 °F 22.6 °F 26.6 °F 100% 30.08 in 10.0 mi SW 3.5 mph - N/A   Clear
8:15 AM 30.2 °F 25.4 °F 28.4 °F 93% 30.08 in 10.0 mi SW 4.6 mph - N/A   Clear
8:35 AM 32.0 °F 27.5 °F 30.2 °F 93% 30.08 in 10.0 mi SW 4.6 mph - N/A   Clear
8:55 AM 32.0 °F 26.4 °F 28.4 °F 87% 30.07 in 10.0 mi WSW 5.8 mph - N/A   Clear
9:15 AM 33.8 °F 28.6 °F 26.6 °F 75% 30.07 in 10.0 mi WSW 5.8 mph - N/A   Clear
9:35 AM 35.6 °F 28.6 °F 26.6 °F 70% 30.07 in 10.0 mi WSW 9.2 mph - N/A   Clear
9:55 AM 37.4 °F 30.8 °F 24.8 °F 60% 30.06 in 10.0 mi West 9.2 mph - N/A   Clear
10:15 AM 37.4 °F 29.8 °F 23.0 °F 56% 30.06 in 10.0 mi WSW 11.5 mph 18.4 mph N/A   Clear
10:35 AM 39.2 °F 30.5 °F 21.2 °F 49% 30.06 in 10.0 mi WSW 16.1 mph 21.9 mph N/A   Clear
10:55 AM 41.0 °F 33.9 °F 21.2 °F 45% 30.05 in 10.0 mi WSW 12.7 mph 24.2 mph N/A   Clear
11:15 AM 41.0 °F 33.1 °F 21.2 °F 45% 30.05 in 10.0 mi West 15.0 mph 19.6 mph N/A   Clear
11:35 AM 42.8 °F 36.6 °F 19.4 °F 39% 30.04 in 10.0 mi WSW 11.5 mph 20.7 mph N/A   Clear
11:55 AM 42.8 °F 37.0 °F 17.6 °F 36% 30.04 in 10.0 mi West 10.4 mph - N/A   Clear
12:15 PM 42.8 °F 36.2 °F 17.6 °F 36% 30.03 in 10.0 mi West 12.7 mph 19.6 mph N/A   Clear
12:35 PM 42.8 °F 36.2 °F 15.8 °F 34% 30.03 in 10.0 mi West 12.7 mph 19.6 mph N/A   Clear
12:55 PM 44.6 °F 38.4 °F 15.8 °F 31% 30.02 in 10.0 mi SW 12.7 mph 19.6 mph N/A   Clear
1:15 PM 44.6 °F 36.9 °F 14.0 °F 29% 30.01 in 10.0 mi West 18.4 mph 24.2 mph N/A   Clear
1:35 PM 42.8 °F 35.8 °F 14.0 °F 31% 30.01 in 10.0 mi WSW 13.8 mph 19.6 mph N/A   Clear
1:55 PM 44.6 °F 36.9 °F 14.0 °F 29% 29.99 in 10.0 mi SW 18.4 mph 21.9 mph N/A   Scattered Clouds
2:15 PM 44.6 °F 38.1 °F 14.0 °F 29% 29.99 in 10.0 mi WSW 13.8 mph 25.3 mph N/A   Scattered Clouds
2:35 PM 44.6 °F 38.8 °F 14.0 °F 29% 29.98 in 10.0 mi WSW 11.5 mph 23.0 mph N/A   Scattered Clouds
2:55 PM 46.4 °F 41.1 °F 14.0 °F 27% 29.98 in 10.0 mi SW 11.5 mph 18.4 mph N/A   Scattered Clouds
3:15 PM 44.6 °F 38.1 °F 14.0 °F 29% 29.97 in 10.0 mi West 13.8 mph 20.7 mph N/A   Scattered Clouds
3:35 PM 44.6 °F 37.2 °F 14.0 °F 29% 29.97 in 10.0 mi WSW 17.3 mph 24.2 mph N/A   Clear
3:55 PM 44.6 °F 38.4 °F 14.0 °F 29% 29.96 in 10.0 mi WSW 12.7 mph 17.3 mph N/A   Clear
4:15 PM 44.6 °F 38.4 °F 14.0 °F 29% 29.96 in 10.0 mi West 12.7 mph 25.3 mph N/A   Scattered Clouds
4:35 PM 44.6 °F 37.2 °F 14.0 °F 29% 29.95 in 10.0 mi WSW 17.3 mph 24.2 mph N/A   Scattered Clouds
4:55 PM 44.6 °F 38.8 °F 14.0 °F 29% 29.95 in 10.0 mi WSW 11.5 mph 18.4 mph N/A   Clear
5:15 PM 44.6 °F 39.7 °F 14.0 °F 29% 29.95 in 10.0 mi WSW 9.2 mph - N/A   Scattered Clouds
5:35 PM 42.8 °F 37.5 °F 14.0 °F 31% 29.95 in 10.0 mi WSW 9.2 mph - N/A   Scattered Clouds
5:55 PM 41.0 °F 36.4 °F 14.0 °F 33% 29.95 in 10.0 mi WSW 6.9 mph - N/A   Clear
6:15 PM 39.2 °F 34.2 °F 15.8 °F 39% 29.95 in 10.0 mi WSW 6.9 mph - N/A   Clear
6:35 PM 39.2 °F 37.0 °F 15.8 °F 39% 29.94 in 10.0 mi SW 3.5 mph - N/A   Clear
6:55 PM 35.6 °F 32.8 °F 17.6 °F 48% 29.94 in 10.0 mi SW 3.5 mph - N/A   Clear
7:15 PM 33.8 °F 29.6 °F 17.6 °F 52% 29.95 in 10.0 mi SW 4.6 mph - N/A   Clear
7:35 PM 35.6 °F 32.8 °F 17.6 °F 48% 29.95 in 10.0 mi SW 3.5 mph - N/A   Clear
7:55 PM 33.8 °F - 17.6 °F 52% 29.96 in 10.0 mi Calm Calm - N/A   Clear
8:15 PM 30.2 °F 26.7 °F 19.4 °F 64% 29.96 in 10.0 mi SSW 3.5 mph - N/A   Clear
8:55 PM 32.0 °F 28.7 °F 17.6 °F 55% 29.96 in 10.0 mi SSW 3.5 mph - N/A   Clear
9:15 PM 33.8 °F 30.8 °F 17.6 °F 52% 29.96 in 10.0 mi SSW 3.5 mph - N/A   Clear
9:35 PM 33.8 °F - 17.6 °F 52% 29.95 in 10.0 mi Calm Calm - N/A   Clear
9:55 PM 33.8 °F 30.8 °F 17.6 °F 52% 29.95 in 10.0 mi SSW 3.5 mph - N/A   Clear
10:15 PM 33.8 °F 30.8 °F 17.6 °F 52% 29.95 in 10.0 mi SSW 3.5 mph - N/A   Scattered Clouds
10:35 PM 33.8 °F 30.8 °F 17.6 °F 52% 29.94 in 10.0 mi SSW 3.5 mph - N/A   Scattered Clouds
10:55 PM 32.0 °F 27.5 °F 17.6 °F 55% 29.94 in 10.0 mi SSW 4.6 mph - N/A   Clear
11:15 PM 32.0 °F 27.5 °F 17.6 °F 55% 29.94 in 10.0 mi SSW 4.6 mph - N/A   Clear
11:35 PM 32.0 °F 28.7 °F 17.6 °F 55% 29.93 in 10.0 mi SSW 3.5 mph - N/A   Clear
11:55 PM 32.0 °F 27.5 °F 17.6 °F 55% 29.93 in 10.0 mi SSW 4.6 mph - N/A   Clear